Wind_Speed
16 16 16 15 15 15 15 16 16 16 16 16 16 17 17 17 17 17 17 17 17 17 18 18 19 19 18 19 18 18 19 19 19 20 18 17 17 17 17 17 17 17 16
16 15 16 16 16 16 16 16 16 16 16 16 16 16 16 15 15 15 15 16 17 18 18 19 20 19 19 19 19 20 20 19 19 19 18 18 18 17 17 17 17 17 17
15 14 15 15 15 15 15 16 16 16 16 16 15 15 15 14 14 15 16 16 16 17 18 19 19 19 19 19 20 20 20 20 19 19 19 19 19 18 18 18 18 19 19
15 15 15 14 15 15 15 16 16 15 15 15 14 14 14 14 14 15 15 16 16 17 18 19 19 20 19 19 19 20 20 20 19 19 19 19 19 19 19 19 19 19 19
15 16 15 15 15 16 16 16 16 15 15 15 15 14 14 14 15 15 16 16 17 18 18 19 19 20 20 19 19 20 20 20 19 19 20 19 19 18 19 19 18 18 18
17 16 16 16 16 16 16 16 15 15 15 15 15 15 15 15 16 16 16 17 17 17 18 18 19 20 20 20 20 20 20 20 20 20 20 19 18 18 18 18 18 18 18
16 16 16 16 16 16 16 16 17 17 16 16 16 16 16 16 17 17 17 18 18 18 18 18 18 19 20 20 20 20 20 19 19 19 20 20 19 19 19 18 18 18 18
16 16 17 17 16 16 16 17 17 17 17 17 17 16 16 17 17 17 17 18 18 17 17 17 17 18 19 20 20 19 19 19 20 20 20 20 20 19 19 19 19 19 19
17 17 17 17 18 17 17 17 17 18 17 17 18 18 17 16 16 17 17 18 18 18 17 17 16 17 18 19 19 20 20 19 20 20 20 20 19 20 20 20 19 19 19
18 18 18 18 19 19 19 19 18 19 19 19 19 18 18 18 18 18 18 18 18 18 18 18 17 18 18 18 19 20 20 20 20 20 20 19 18 19 19 19 19 19 20
18 18 18 19 19 19 19 20 20 20 19 19 19 19 19 19 19 18 18 18 18 17 17 17 17 19 18 18 18 18 19 20 20 20 20 20 19 19 19 20 19 20 20
19 19 19 19 20 20 20 21 21 20 20 20 20 20 20 20 19 19 19 19 19 18 18 18 18 19 19 18 18 18 19 20 20 20 21 21 21 20 20 20 20 20 20
20 20 20 20 21 21 21 21 21 20 20 21 21 21 21 20 20 19 19 19 19 20 20 20 20 20 19 19 19 19 19 20 20 20 20 21 22 21 21 22 21 21 21
21 21 21 21 21 22 22 22 22 22 22 21 21 21 21 21 21 20 20 20 20 21 21 21 21 21 20 19 19 19 19 19 19 20 21 22 22 22 22 23 23 23 22
21 21 21 21 22 22 22 22 22 22 22 21 21 21 21 21 21 21 22 22 22 22 21 21 22 22 22 21 21 20 19 19 20 21 21 22 22 22 23 23 24 24 24
22 21 22 22 22 22 22 22 21 22 23 22 22 22 22 21 21 21 22 23 23 23 22 21 22 22 22 21 21 21 21 21 21 21 22 23 23 23 23 24 24 24 24
22 22 22 22 22 22 22 22 22 22 22 23 23 23 22 23 23 23 22 22 23 22 22 22 22 22 22 22 22 22 22 22 23 23 23 24 24 24 24 24 24 25 25
23 24 23 23 23 23 23 23 23 23 23 23 23 24 24 24 24 23 23 23 23 23 23 23 23 23 22 23 23 23 23 23 24 24 24 24 25 25 25 25 24 25 25
25 25 24 24 24 24 24 24 24 24 24 24 24 24 24 24 24 24 24 24 24 24 24 24 24 23 23 23 23 23 23 23 23 24 24 24 25 26 26 26 25 25 25
26 26 25 25 25 25 25 25 26 25 25 25 25 25 25 25 25 25 25 25 26 26 26 25 25 25 24 24 24 24 24 23 23 24 24 25 25 26 26 26 26 25 25
26 27 27 27 27 26 27 27 27 27 27 26 26 26 26 26 26 26 26 26 26 27 27 26 26 26 26 26 26 26 26 25 25 24 24 24 25 26 26 26 25 25 25
27 27 28 28 28 28 28 28 28 27 27 27 26 27 26 26 26 26 26 27 27 27 27 27 27 27 27 27 27 27 27 26 26 26 25 25 25 25 26 26 26 26 26
27 27 27 28 28 29 28 29 29 29 28 28 28 28 27 27 27 27 27 28 28 28 27 28 28 28 28 28 27 27 27 27 26 26 26 25 26 25 25 25 26 27 26
27 27 27 27 27 28 28 29 29 29 28 28 28 28 28 28 28 28 28 28 28 28 28 28 28 29 28 28 27 27 27 27 27 26 26 26 26 26 25 25 25 26 27
28 28 28 27 28 28 28 28 28 28 28 27 27 28 28 29 28 28 28 28 28 29 29 29 28 29 28 28 28 27 27 27 27 27 27 27 26 27 27 27 26 25 26
28 28 28 28 28 29 29 28 28 28 28 27 28 28 28 29 29 29 29 28 28 28 29 28 28 28 28 28 28 28 28 28 28 27 28 27 27 27 27 26 27 26 26
Wind_Direction
267 268 268 267 270 273 274 275 273 275 276 277 278 278 279 279 277 270 268 266 266 267 268 270 267 265 263 262 260 261 261 260 258 258 260 256 254 254 255 254 252 251 252
265 267 268 268 271 273 275 277 274 274 275 278 279 280 281 279 276 272 268 268 268 269 270 270 269 266 265 264 262 261 261 261 259 259 258 256 254 254 256 255 251 249 251
265 267 268 269 272 272 275 277 275 273 275 278 279 280 280 278 275 273 268 266 268 270 272 271 268 264 264 264 263 261 261 260 258 256 255 254 252 252 253 254 253 251 250
267 268 269 271 273 275 275 277 274 274 275 278 278 279 279 277 275 274 268 266 269 269 269 269 268 267 265 266 263 262 263 260 259 256 254 252 250 251 251 253 253 252 251
268 269 269 273 274 276 276 278 274 275 276 276 276 276 277 277 275 274 271 269 270 271 270 268 267 266 263 263 261 262 262 261 260 258 255 252 251 250 252 252 252 253 254
268 269 271 274 275 277 277 277 276 274 275 275 276 275 276 276 275 272 272 271 271 272 271 269 268 265 264 263 261 261 261 261 260 258 253 250 250 252 253 253 253 254 253
269 269 271 274 276 278 279 278 278 275 276 276 276 276 277 279 280 278 275 273 273 274 275 274 271 269 267 264 263 260 258 257 256 255 253 251 252 256 255 256 255 256 254
273 272 272 273 274 277 278 279 279 277 277 276 275 276 276 278 278 278 274 271 272 275 276 274 275 271 268 265 262 257 256 258 256 254 252 253 255 256 256 256 255 257 257
275 274 273 272 274 275 275 276 278 277 276 275 275 277 277 277 278 279 277 275 275 275 274 274 275 274 271 266 262 257 258 259 257 254 254 254 256 257 255 256 256 258 257
273 272 272 272 274 274 274 276 277 276 276 276 275 276 278 279 279 279 278 277 276 276 275 272 274 275 271 269 265 261 258 258 256 254 255 254 257 257 256 257 257 258 258
272 269 269 271 273 273 274 275 275 275 276 278 277 276 277 279 279 278 278 278 278 278 277 273 273 273 270 270 267 263 259 259 258 256 255 255 257 258 257 257 256 257 257
273 271 270 271 272 273 273 274 274 274 277 278 278 276 276 277 279 277 277 278 277 275 274 271 271 271 269 269 267 264 260 258 257 258 259 258 258 259 257 256 256 255 257
273 273 272 273 273 273 272 272 272 273 276 277 277 277 276 276 275 275 276 276 276 275 275 274 272 271 269 268 266 267 265 261 258 260 261 262 261 260 260 259 258 257 258
275 274 274 274 273 273 274 272 270 272 275 276 277 277 277 277 276 275 275 274 274 274 274 274 272 272 272 270 266 268 270 266 263 262 262 261 260 260 261 260 260 259 258
275 276 276 275 273 272 274 274 272 273 273 274 276 276 276 277 277 276 277 276 275 274 273 272 273 273 272 273 269 269 270 269 267 265 263 262 261 261 261 261 260 259 259
275 276 276 277 275 272 272 273 273 273 272 272 273 274 276 277 278 278 277 277 275 274 273 273 273 273 273 273 271 270 268 268 268 266 265 264 263 263 263 263 263 261 260
275 277 276 276 276 275 273 273 273 273 274 274 273 273 275 276 278 278 279 279 277 276 275 275 274 274 273 273 272 271 269 269 269 268 267 266 265 266 266 265 263 261 259
277 278 277 277 275 274 273 274 275 275 275 274 274 274 274 276 278 279 280 280 278 276 276 275 275 274 274 274 274 273 271 270 269 269 269 268 267 267 265 265 265 263 260
278 279 279 278 277 275 274 274 275 275 274 274 274 275 275 276 278 279 279 279 278 276 275 275 274 273 274 275 275 275 274 272 271 270 270 268 267 267 265 264 265 264 262
279 279 277 277 276 274 273 273 274 275 275 274 274 274 275 277 279 279 280 279 278 277 275 275 274 273 273 274 274 274 274 273 272 272 271 271 269 267 265 264 264 263 262
279 278 277 277 275 274 273 273 273 274 274 275 274 274 275 277 279 279 279 279 278 277 276 275 275 275 274 273 273 273 273 272 271 271 272 272 271 268 266 264 263 264 264
279 278 278 276 275 274 274 273 272 273 274 274 274 274 275 276 278 279 279 278 277 277 276 275 275 275 275 275 273 272 272 271 270 270 270 270 270 270 268 265 263 263 262
280 280 278 277 275 274 274 274 272 272 272 272 272 273 273 275 276 278 277 277 277 277 275 275 275 275 275 274 273 272 271 269 268 268 268 269 269 269 270 267 264 262 261
280 279 279 278 277 276 276 275 273 272 271 272 272 271 272 274 275 277 277 276 276 276 275 274 274 275 274 273 273 272 270 268 267 267 267 268 268 268 267 266 265 262 261
278 279 279 278 278 278 277 277 275 273 272 272 271 271 272 274 274 276 276 276 276 276 276 275 274 274 274 272 271 271 270 268 268 267 267 268 269 268 266 264 263 263 262
278 279 279 278 277 277 277 277 276 274 272 273 272 272 273 274 275 276 277 277 277 276 276 275 274 274 273 271 270 270 270 269 268 268 268 268 269 268 266 264 262 262 262
Height
5848 5848 5848 5847 5847 5846 5845 5845 5844 5843 5842 5840 5839 5837 5836 5835 5833 5833 5833 5833 5833 5833 5833 5833 5833 5833 5833 5833 5833 5833 5833 5833 5833 5833 5833 5834 5834 5835 5835 5836 5836 5837 5838
5845 5845 5844 5844 5843 5843 5842 5841 5840 5840 5838 5837 5835 5834 5832 5831 5830 5829 5829 5829 5829 5829 5829 5829 5829 5828 5828 5828 5828 5828 5828 5828 5829 5829 5829 5830 5830 5831 5831 5832 5832 5833 5834
5841 5841 5841 5840 5839 5839 5838 5838 5837 5836 5835 5834 5832 5830 5829 5827 5826 5826 5826 5826 5826 5825 5825 5824 5824 5823 5824 5824 5823 5824 5824 5824 5824 5825 5825 5825 5826 5826 5827 5828 5828 5829 5830
5838 5837 5837 5836 5836 5835 5834 5834 5833 5833 5831 5830 5829 5827 5825 5824 5823 5822 5822 5822 5822 5821 5821 5820 5820 5820 5819 5819 5819 5819 5819 5819 5819 5820 5820 5821 5821 5822 5823 5823 5824 5824 5825
5834 5834 5833 5833 5832 5831 5831 5830 5829 5829 5827 5826 5825 5824 5822 5821 5820 5819 5819 5818 5818 5817 5817 5816 5815 5815 5815 5815 5814 5814 5814 5814 5815 5815 5815 5816 5817 5817 5818 5819 5819 5820 5821
5830 5829 5829 5829 5828 5827 5827 5826 5825 5824 5824 5823 5822 5820 5819 5818 5817 5816 5815 5814 5813 5813 5812 5811 5811 5810 5810 5810 5809 5809 5809 5809 5809 5810 5810 5811 5812 5813 5814 5814 5815 5816 5816
5825 5825 5825 5824 5824 5823 5823 5822 5821 5820 5820 5819 5818 5817 5815 5814 5813 5812 5811 5810 5809 5808 5807 5806 5806 5805 5805 5804 5804 5804 5804 5804 5803 5804 5805 5806 5807 5808 5809 5810 5811 5811 5812
5821 5821 5820 5820 5819 5819 5818 5818 5817 5816 5815 5815 5814 5813 5812 5811 5809 5808 5807 5806 5805 5804 5803 5802 5801 5800 5800 5799 5799 5798 5799 5798 5798 5799 5800 5801 5802 5803 5804 5805 5806 5807 5808
5816 5816 5816 5815 5815 5815 5814 5813 5813 5812 5811 5810 5809 5809 5808 5806 5805 5803 5802 5801 5800 5799 5798 5797 5796 5795 5795 5794 5793 5793 5793 5793 5793 5794 5794 5796 5797 5798 5799 5800 5801 5802 5803
5812 5811 5811 5810 5810 5809 5809 5808 5808 5807 5806 5806 5804 5803 5803 5802 5801 5800 5798 5797 5796 5795 5794 5793 5792 5791 5789 5789 5788 5787 5788 5788 5788 5788 5789 5791 5791 5792 5794 5795 5796 5797 5798
5807 5807 5806 5806 5805 5804 5804 5803 5803 5802 5801 5801 5800 5799 5798 5797 5796 5795 5794 5793 5791 5790 5789 5788 5787 5786 5784 5784 5783 5782 5782 5783 5783 5784 5784 5785 5786 5787 5788 5789 5790 5791 5792
5802 5801 5801 5800 5800 5799 5798 5798 5797 5797 5796 5796 5795 5794 5793 5792 5791 5790 5789 5788 5786 5785 5784 5783 5782 5781 5780 5779 5778 5778 5778 5778 5778 5779 5780 5780 5781 5782 5783 5783 5784 5785 5786
5797 5796 5796 5795 5794 5793 5793 5792 5792 5791 5791 5790 5789 5788 5788 5787 5786 5785 5783 5782 5781 5780 5779 5778 5777 5776 5774 5774 5773 5773 5773 5773 5773 5774 5774 5775 5776 5776 5777 5778 5779 5780 5780
5791 5790 5790 5789 5788 5788 5787 5786 5786 5786 5785 5785 5784 5783 5782 5781 5780 5779 5778 5777 5776 5775 5773 5772 5771 5770 5769 5769 5768 5768 5768 5767 5768 5768 5769 5770 5770 5771 5771 5772 5773 5774 5774
5785 5785 5784 5783 5782 5782 5781 5781 5780 5780 5779 5779 5778 5777 5776 5775 5774 5773 5772 5771 5770 5769 5768 5767 5766 5764 5763 5763 5763 5762 5762 5762 5762 5762 5763 5763 5764 5764 5765 5766 5766 5767 5768
5780 5779 5778 5777 5777 5776 5776 5775 5774 5774 5774 5773 5772 5771 5770 5769 5768 5767 5766 5764 5763 5763 5762 5761 5760 5759 5757 5757 5756 5756 5756 5756 5756 5756 5756 5757 5757 5758 5758 5759 5760 5760 5761
5774 5773 5772 5771 5771 5770 5770 5769 5768 5768 5767 5767 5766 5765 5764 5763 5762 5761 5759 5758 5757 5756 5755 5754 5753 5752 5751 5751 5750 5750 5750 5750 5750 5749 5750 5750 5750 5751 5751 5751 5752 5753 5754
5767 5767 5766 5765 5765 5764 5763 5763 5762 5761 5761 5760 5759 5758 5757 5756 5755 5754 5752 5751 5750 5749 5748 5747 5747 5746 5745 5744 5744 5743 5743 5743 5743 5742 5742 5742 5743 5743 5743 5743 5744 5745 5745
5761 5760 5759 5758 5758 5757 5757 5756 5755 5754 5754 5753 5752 5751 5750 5749 5748 5747 5745 5744 5743 5742 5741 5740 5740 5739 5738 5738 5737 5736 5736 5736 5735 5735 5735 5734 5735 5735 5735 5735 5736 5737 5737
5753 5753 5752 5751 5751 5750 5749 5749 5748 5747 5747 5746 5745 5744 5743 5742 5741 5739 5738 5737 5736 5735 5734 5733 5732 5732 5731 5730 5730 5729 5729 5728 5728 5727 5727 5727 5726 5726 5726 5727 5728 5728 5729
5746 5745 5745 5744 5743 5742 5742 5741 5740 5740 5739 5738 5737 5736 5735 5734 5733 5732 5730 5729 5728 5727 5726 5725 5724 5724 5723 5723 5722 5722 5721 5720 5720 5720 5719 5719 5718 5718 5718 5719 5719 5720 5721
5738 5737 5736 5736 5735 5734 5734 5733 5732 5732 5731 5730 5729 5728 5728 5726 5725 5724 5723 5721 5720 5719 5718 5717 5717 5716 5715 5715 5714 5713 5713 5712 5712 5712 5711 5711 5711 5710 5710 5710 5711 5712 5712
5730 5729 5728 5727 5726 5726 5725 5724 5724 5723 5722 5721 5721 5720 5719 5718 5717 5716 5715 5713 5712 5711 5710 5709 5708 5707 5707 5706 5706 5705 5705 5704 5704 5704 5703 5703 5703 5702 5702 5702 5702 5703 5704
5722 5721 5720 5719 5718 5717 5716 5715 5715 5714 5713 5713 5712 5711 5711 5710 5709 5708 5707 5705 5704 5703 5702 5701 5700 5699 5698 5697 5696 5696 5696 5696 5696 5695 5695 5695 5695 5694 5694 5694 5694 5694 5695
5713 5712 5711 5710 5709 5708 5707 5707 5706 5705 5704 5704 5703 5702 5702 5701 5700 5699 5698 5697 5696 5695 5693 5692 5691 5690 5689 5688 5687 5687 5687 5687 5687 5687 5687 5687 5686 5686 5686 5686 5686 5686 5687
5704 5703 5702 5701 5700 5699 5699 5698 5697 5696 5696 5695 5695 5694 5693 5692 5691 5690 5689 5688 5687 5686 5685 5683 5682 5681 5680 5679 5679 5679 5678 5678 5678 5679 5678 5678 5678 5677 5678 5678 5678 5678 5679